Time,TemperatureF,DewpointF,PressureIn,WindDirection,WindDirectionDegrees,WindSpeedMPH,WindSpeedGustMPH,Humidity,HourlyPrecipIn,Conditions,Clouds,dailyrainin,SoftwareType,DateUTC
2013-04-17 00:02:00,60.4,25.3,30.00,North,0,5.0,11.0,26,0.00,,,0.00,meteohub,2013-04-17 07:02:00,
2013-04-17 00:07:00,60.3,25.2,30.00,North,0,4.0,11.0,26,0.00,,,0.00,meteohub,2013-04-17 07:07:00,
2013-04-17 00:12:00,60.3,25.2,30.00,North,0,4.0,11.0,26,0.00,,,0.00,meteohub,2013-04-17 07:12:00,
2013-04-17 00:17:00,60.1,25.2,30.00,NE,45,4.0,9.0,26,0.00,,,0.00,meteohub,2013-04-17 07:17:00,
2013-04-17 00:22:00,60.1,25.2,30.01,North,0,9.0,9.0,26,0.00,,,0.00,meteohub,2013-04-17 07:22:00,
2013-04-17 00:27:00,60.1,26.1,30.01,North,0,4.0,9.0,27,0.00,,,0.00,meteohub,2013-04-17 07:27:00,
2013-04-17 00:32:00,59.9,25.9,30.01,NNE,23,6.0,9.0,27,0.00,,,0.00,meteohub,2013-04-17 07:32:00,
2013-04-17 00:37:00,59.7,25.7,30.01,North,0,7.0,9.0,27,0.00,,,0.00,meteohub,2013-04-17 07:37:00,
2013-04-17 00:42:00,59.7,25.7,30.01,North,0,4.0,11.0,27,0.00,,,0.00,meteohub,2013-04-17 07:42:00,
2013-04-17 00:47:00,59.7,25.7,30.01,NW,315,5.0,11.0,27,0.00,,,0.00,meteohub,2013-04-17 07:47:00,
2013-04-17 00:52:00,59.7,25.7,30.01,NE,45,8.0,11.0,27,0.00,,,0.00,meteohub,2013-04-17 07:52:00,
2013-04-17 00:57:00,59.7,26.6,30.01,NE,45,4.0,9.0,28,0.00,,,0.00,meteohub,2013-04-17 07:57:00,
2013-04-17 01:02:00,59.7,26.6,30.02,NE,45,3.0,11.0,28,0.00,,,0.00,meteohub,2013-04-17 08:02:00,
2013-04-17 01:07:00,59.7,26.6,30.02,NE,45,8.0,11.0,28,0.00,,,0.00,meteohub,2013-04-17 08:07:00,
2013-04-17 01:12:00,59.7,26.6,30.01,North,0,5.0,11.0,28,0.00,,,0.00,meteohub,2013-04-17 08:12:00,
2013-04-17 01:16:00,59.7,26.6,30.01,North,0,12.0,12.0,28,0.00,,,0.00,meteohub,2013-04-17 08:16:00,
2013-04-17 01:22:00,59.7,27.3,30.01,NNE,23,3.0,12.0,29,0.00,,,0.00,meteohub,2013-04-17 08:22:00,
2013-04-17 01:27:00,59.5,26.4,30.01,NE,45,7.0,12.0,28,0.00,,,0.00,meteohub,2013-04-17 08:27:00,
2013-04-17 01:32:00,59.7,26.6,30.02,North,0,14.0,14.0,28,0.00,,,0.00,meteohub,2013-04-17 08:32:00,
2013-04-17 01:37:00,59.9,26.8,30.01,North,0,7.0,14.0,28,0.00,,,0.00,meteohub,2013-04-17 08:37:00,
2013-04-17 01:42:00,59.7,27.3,30.02,North,0,6.0,14.0,29,0.00,,,0.00,meteohub,2013-04-17 08:42:00,
2013-04-17 01:47:00,59.5,27.3,30.02,NE,45,7.0,14.0,29,0.00,,,0.00,meteohub,2013-04-17 08:47:00,
2013-04-17 01:52:00,59.5,27.3,30.02,North,0,7.0,13.0,29,0.00,,,0.00,meteohub,2013-04-17 08:52:00,
2013-04-17 01:56:00,59.5,27.3,30.02,NE,45,5.0,9.0,29,0.00,,,0.00,meteohub,2013-04-17 08:56:00,
2013-04-17 02:02:00,59.5,27.3,30.02,NW,315,4.0,11.0,29,0.00,,,0.00,meteohub,2013-04-17 09:02:00,
2013-04-17 02:07:00,59.4,27.1,30.02,NE,45,6.0,11.0,29,0.00,,,0.00,meteohub,2013-04-17 09:07:00,
2013-04-17 02:11:00,59.4,27.9,30.02,NE,45,2.0,11.0,30,0.00,,,0.00,meteohub,2013-04-17 09:11:00,
2013-04-17 02:16:00,59.0,27.7,30.02,NE,45,4.0,7.0,30,0.00,,,0.00,meteohub,2013-04-17 09:16:00,
2013-04-17 02:21:00,59.0,27.7,30.02,WNW,293,8.0,8.0,30,0.00,,,0.00,meteohub,2013-04-17 09:21:00,
2013-04-17 02:26:00,59.0,27.7,30.02,North,0,5.0,8.0,30,0.00,,,0.00,meteohub,2013-04-17 09:26:00,
2013-04-17 02:32:00,58.8,28.2,30.02,NE,45,4.0,8.0,31,0.00,,,0.00,meteohub,2013-04-17 09:32:00,
2013-04-17 02:37:00,58.5,27.9,30.03,North,0,3.0,8.0,31,0.00,,,0.00,meteohub,2013-04-17 09:37:00,
2013-04-17 02:42:00,58.5,28.8,30.02,North,0,4.0,7.0,32,0.00,,,0.00,meteohub,2013-04-17 09:42:00,
2013-04-17 02:47:00,58.3,27.9,30.02,NNE,23,4.0,8.0,31,0.00,,,0.00,meteohub,2013-04-17 09:47:00,
2013-04-17 02:52:00,58.1,28.4,30.02,North,0,4.0,8.0,32,0.00,,,0.00,meteohub,2013-04-17 09:52:00,
2013-04-17 02:57:00,58.1,28.4,30.02,North,0,3.0,8.0,32,0.00,,,0.00,meteohub,2013-04-17 09:57:00,
2013-04-17 03:02:00,58.1,28.4,30.02,NE,45,8.0,8.0,32,0.00,,,0.00,meteohub,2013-04-17 10:02:00,
2013-04-17 03:07:00,57.9,28.2,30.02,North,0,4.0,8.0,32,0.00,,,0.00,meteohub,2013-04-17 10:07:00,
2013-04-17 03:12:00,57.9,28.2,30.03,North,0,4.0,8.0,32,0.00,,,0.00,meteohub,2013-04-17 10:12:00,
2013-04-17 03:17:00,57.6,28.6,30.03,North,0,5.0,8.0,33,0.00,,,0.00,meteohub,2013-04-17 10:17:00,
2013-04-17 03:22:00,57.4,28.6,30.03,NE,45,4.0,7.0,33,0.00,,,0.00,meteohub,2013-04-17 10:22:00,
2013-04-17 03:27:00,57.2,29.1,30.03,North,0,4.0,6.0,34,0.00,,,0.00,meteohub,2013-04-17 10:27:00,
2013-04-17 03:32:00,57.2,29.1,30.03,North,0,4.0,6.0,34,0.00,,,0.00,meteohub,2013-04-17 10:32:00,
2013-04-17 03:37:00,56.8,28.8,30.03,North,0,4.0,6.0,34,0.00,,,0.00,meteohub,2013-04-17 10:37:00,
2013-04-17 03:42:00,56.7,29.3,30.03,North,0,3.0,6.0,35,0.00,,,0.00,meteohub,2013-04-17 10:42:00,
2013-04-17 03:47:00,56.5,29.1,30.03,North,0,3.0,5.0,35,0.00,,,0.00,meteohub,2013-04-17 10:47:00,
2013-04-17 03:52:00,56.1,28.8,30.03,North,0,4.0,4.0,35,0.00,,,0.00,meteohub,2013-04-17 10:52:00,
2013-04-17 03:57:00,56.3,28.9,30.03,North,0,4.0,7.0,35,0.00,,,0.00,meteohub,2013-04-17 10:57:00,
2013-04-17 04:02:00,56.1,28.8,30.04,North,0,3.0,7.0,35,0.00,,,0.00,meteohub,2013-04-17 11:02:00,
2013-04-17 04:07:00,56.1,28.8,30.03,North,0,4.0,7.0,35,0.00,,,0.00,meteohub,2013-04-17 11:07:00,
2013-04-17 04:12:00,56.1,28.0,30.03,North,0,4.0,5.0,34,0.00,,,0.00,meteohub,2013-04-17 11:12:00,
2013-04-17 04:17:00,55.9,28.0,30.03,North,0,4.0,4.0,34,0.00,,,0.00,meteohub,2013-04-17 11:17:00,
2013-04-17 04:22:00,55.9,27.3,30.03,North,0,5.0,5.0,33,0.00,,,0.00,meteohub,2013-04-17 11:22:00,
2013-04-17 04:27:00,56.1,26.6,30.03,North,0,3.0,5.0,32,0.00,,,0.00,meteohub,2013-04-17 11:27:00,
2013-04-17 04:32:00,56.3,26.1,30.04,NE,45,7.0,8.0,31,0.00,,,0.00,meteohub,2013-04-17 11:32:00,
2013-04-17 04:37:00,56.7,25.5,30.04,NE,45,8.0,8.0,30,0.00,,,0.00,meteohub,2013-04-17 11:37:00,
2013-04-17 04:42:00,56.8,25.7,30.04,ENE,68,8.0,8.0,30,0.00,,,0.00,meteohub,2013-04-17 11:42:00,
2013-04-17 04:47:00,56.8,25.7,30.04,NE,45,4.0,8.0,30,0.00,,,0.00,meteohub,2013-04-17 11:47:00,
2013-04-17 04:52:00,56.8,25.0,30.04,NE,45,8.0,8.0,29,0.00,,,0.00,meteohub,2013-04-17 11:52:00,
2013-04-17 04:57:00,56.7,24.8,30.04,North,0,5.0,8.0,29,0.00,,,0.00,meteohub,2013-04-17 11:57:00,
2013-04-17 05:02:00,56.8,25.0,30.04,NE,45,4.0,9.0,29,0.00,,,0.00,meteohub,2013-04-17 12:02:00,
2013-04-17 05:07:00,56.7,24.8,30.04,NE,45,4.0,11.0,29,0.00,,,0.00,meteohub,2013-04-17 12:07:00,
2013-04-17 05:12:00,56.7,24.8,30.04,NE,45,9.0,11.0,29,0.00,,,0.00,meteohub,2013-04-17 12:12:00,
2013-04-17 05:17:00,56.7,24.8,30.05,NE,45,4.0,13.0,29,0.00,,,0.00,meteohub,2013-04-17 12:17:00,
2013-04-17 05:22:00,56.3,24.4,30.05,North,0,5.0,13.0,29,0.00,,,0.00,meteohub,2013-04-17 12:22:00,
2013-04-17 05:27:00,56.5,24.6,30.05,North,0,8.0,9.0,29,0.00,,,0.00,meteohub,2013-04-17 12:27:00,
2013-04-17 05:32:00,56.3,24.4,30.05,North,0,6.0,9.0,29,0.00,,,0.00,meteohub,2013-04-17 12:32:00,
2013-04-17 05:37:00,56.3,24.4,30.05,North,0,6.0,9.0,29,0.00,,,0.00,meteohub,2013-04-17 12:37:00,
2013-04-17 05:42:00,56.3,24.4,30.05,NE,45,4.0,11.0,29,0.00,,,0.00,meteohub,2013-04-17 12:42:00,
2013-04-17 05:47:00,56.1,24.3,30.06,NE,45,7.0,11.0,29,0.00,,,0.00,meteohub,2013-04-17 12:47:00,
2013-04-17 05:52:00,55.8,24.8,30.06,East,90,2.0,8.0,30,0.00,,,0.00,meteohub,2013-04-17 12:52:00,
2013-04-17 05:57:00,55.6,24.6,30.06,North,0,8.0,8.0,30,0.00,,,0.00,meteohub,2013-04-17 12:57:00,
2013-04-17 06:02:00,55.4,25.3,30.06,North,0,2.0,8.0,31,0.00,,,0.00,meteohub,2013-04-17 13:02:00,
2013-04-17 06:07:00,55.0,25.0,30.06,NNE,23,4.0,8.0,31,0.00,,,0.00,meteohub,2013-04-17 13:07:00,
2013-04-17 06:12:00,54.9,25.5,30.06,NNE,23,4.0,8.0,32,0.00,,,0.00,meteohub,2013-04-17 13:12:00,
2013-04-17 06:17:00,55.0,25.0,30.07,NE,45,4.0,8.0,31,0.00,,,0.00,meteohub,2013-04-17 13:17:00,
2013-04-17 06:22:00,55.0,25.0,30.06,North,0,7.0,8.0,31,0.00,,,0.00,meteohub,2013-04-17 13:22:00,
2013-04-17 06:27:00,55.0,25.0,30.07,NE,45,6.0,8.0,31,0.00,,,0.00,meteohub,2013-04-17 13:27:00,
2013-04-17 06:32:00,55.6,25.3,30.07,North,0,4.0,7.0,31,0.00,,,0.00,meteohub,2013-04-17 13:32:00,
2013-04-17 06:37:00,56.3,25.3,30.07,North,0,4.0,8.0,30,0.00,,,0.00,meteohub,2013-04-17 13:37:00,
2013-04-17 06:42:00,57.2,25.2,30.07,NE,45,4.0,8.0,29,0.00,,,0.00,meteohub,2013-04-17 13:42:00,
2013-04-17 06:47:00,58.3,24.4,30.07,NE,45,6.0,8.0,27,0.00,,,0.00,meteohub,2013-04-17 13:47:00,
2013-04-17 06:52:00,59.0,24.1,30.08,North,0,5.0,7.0,26,0.00,,,0.00,meteohub,2013-04-17 13:52:00,
2013-04-17 06:57:00,59.9,25.0,30.08,NNE,23,2.0,7.0,26,0.00,,,0.00,meteohub,2013-04-17 13:57:00,
2013-04-17 07:02:00,60.6,23.5,30.08,North,0,4.0,7.0,24,0.00,,,0.00,meteohub,2013-04-17 14:02:00,
2013-04-17 07:07:00,61.3,24.3,30.09,NE,45,3.0,7.0,24,0.00,,,0.00,meteohub,2013-04-17 14:07:00,
2013-04-17 07:12:00,61.5,23.4,30.09,North,0,4.0,6.0,23,0.00,,,0.00,meteohub,2013-04-17 14:12:00,
2013-04-17 07:17:00,61.9,22.6,30.09,NNE,23,8.0,9.0,22,0.00,,,0.00,meteohub,2013-04-17 14:17:00,
2013-04-17 07:22:00,62.2,23.9,30.09,NNE,23,4.0,9.0,23,0.00,,,0.00,meteohub,2013-04-17 14:22:00,
2013-04-17 07:27:00,63.0,23.5,30.09,NE,45,4.0,9.0,22,0.00,,,0.00,meteohub,2013-04-17 14:27:00,
2013-04-17 07:32:00,63.3,23.9,30.09,North,0,4.0,8.0,22,0.00,,,0.00,meteohub,2013-04-17 14:32:00,
2013-04-17 07:37:00,63.9,24.3,30.09,NE,45,3.0,8.0,22,0.00,,,0.00,meteohub,2013-04-17 14:37:00,
2013-04-17 07:43:00,64.8,23.9,30.09,NE,45,4.0,8.0,21,0.00,,,0.00,meteohub,2013-04-17 14:43:00,
2013-04-17 07:47:00,64.9,24.1,30.10,NNE,23,3.0,8.0,21,0.00,,,0.00,meteohub,2013-04-17 14:47:00,
2013-04-17 07:52:00,65.5,23.4,30.10,North,0,5.0,8.0,20,0.00,,,0.00,meteohub,2013-04-17 14:52:00,
2013-04-17 07:57:00,65.7,23.5,30.10,North,0,6.0,8.0,20,0.00,,,0.00,meteohub,2013-04-17 14:57:00,
2013-04-17 08:03:00,66.4,24.1,30.10,NNE,23,3.0,10.0,20,0.00,,,0.00,meteohub,2013-04-17 15:03:00,
2013-04-17 08:08:00,66.4,22.8,30.10,East,90,8.0,10.0,19,0.00,,,0.00,meteohub,2013-04-17 15:08:00,
2013-04-17 08:13:00,67.6,22.6,30.11,NE,45,5.0,9.0,18,0.00,,,0.00,meteohub,2013-04-17 15:13:00,
2013-04-17 08:18:00,68.0,22.8,30.11,NE,45,6.0,8.0,18,0.00,,,0.00,meteohub,2013-04-17 15:18:00,
2013-04-17 08:23:00,68.4,23.2,30.11,NE,45,4.0,8.0,18,0.00,,,0.00,meteohub,2013-04-17 15:23:00,
2013-04-17 08:28:00,68.7,24.8,30.12,NNE,23,3.0,8.0,19,0.00,,,0.00,meteohub,2013-04-17 15:28:00,
2013-04-17 08:33:00,69.3,22.6,30.12,East,90,5.0,8.0,17,0.00,,,0.00,meteohub,2013-04-17 15:33:00,
2013-04-17 08:38:00,69.4,21.2,30.11,NE,45,7.0,8.0,16,0.00,,,0.00,meteohub,2013-04-17 15:38:00,
2013-04-17 08:43:00,69.4,19.8,30.12,NE,45,8.0,8.0,15,0.00,,,0.00,meteohub,2013-04-17 15:43:00,
2013-04-17 08:48:00,69.6,19.9,30.11,NE,45,9.0,10.0,15,0.00,,,0.00,meteohub,2013-04-17 15:48:00,
2013-04-17 08:53:00,69.6,21.4,30.12,ENE,68,5.0,10.0,16,0.00,,,0.00,meteohub,2013-04-17 15:53:00,
2013-04-17 08:58:00,70.0,20.1,30.11,NE,45,8.0,10.0,15,0.00,,,0.00,meteohub,2013-04-17 15:58:00,
2013-04-17 09:03:00,70.3,20.5,30.11,North,0,8.0,10.0,15,0.00,,,0.00,meteohub,2013-04-17 16:03:00,
2013-04-17 09:08:00,70.5,20.7,30.11,SE,135,9.0,10.0,15,0.00,,,0.00,meteohub,2013-04-17 16:08:00,
2013-04-17 09:13:00,71.1,19.4,30.11,NE,45,12.0,12.0,14,0.00,,,0.00,meteohub,2013-04-17 16:13:00,
2013-04-17 09:18:00,71.4,18.0,30.11,East,90,4.0,12.0,13,0.00,,,0.00,meteohub,2013-04-17 16:18:00,
2013-04-17 09:23:00,71.2,17.8,30.12,East,90,7.0,12.0,13,0.00,,,0.00,meteohub,2013-04-17 16:23:00,
2013-04-17 09:28:00,72.0,18.5,30.11,East,90,6.0,12.0,13,0.00,,,0.00,meteohub,2013-04-17 16:28:00,
2013-04-17 09:33:00,72.3,18.7,30.11,North,0,8.0,11.0,13,0.00,,,0.00,meteohub,2013-04-17 16:33:00,
2013-04-17 09:38:00,72.5,15.1,30.11,ENE,68,8.0,11.0,11,0.00,,,0.00,meteohub,2013-04-17 16:38:00,
2013-04-17 09:43:00,72.5,17.1,30.10,NNE,23,5.0,11.0,12,0.00,,,0.00,meteohub,2013-04-17 16:43:00,
2013-04-17 09:48:00,74.1,14.0,30.11,East,90,4.0,11.0,10,0.00,,,0.00,meteohub,2013-04-17 16:48:00,
2013-04-17 09:53:00,74.7,74.7,30.11,East,90,4.0,11.0,0,0.00,,,0.00,meteohub,2013-04-17 16:53:00,
2013-04-17 09:58:00,75.0,75.0,30.11,NE,45,8.0,8.0,0,0.00,,,0.00,meteohub,2013-04-17 16:58:00,
2013-04-17 10:03:00,74.7,74.7,30.11,NE,45,7.0,8.0,0,0.00,,,0.00,meteohub,2013-04-17 17:03:00,
2013-04-17 10:08:00,74.7,74.7,30.11,NE,45,8.0,11.0,0,0.00,,,0.00,meteohub,2013-04-17 17:08:00,
2013-04-17 10:13:00,75.4,75.4,30.11,ENE,68,4.0,11.0,0,0.00,,,0.00,meteohub,2013-04-17 17:13:00,
2013-04-17 10:18:00,73.9,73.9,30.11,NE,45,6.0,11.0,0,0.00,,,0.00,meteohub,2013-04-17 17:18:00,
2013-04-17 10:23:00,75.9,75.9,30.11,North,0,11.0,11.0,0,0.00,,,0.00,meteohub,2013-04-17 17:23:00,
2013-04-17 10:28:00,75.9,75.9,30.11,ENE,68,5.0,11.0,0,0.00,,,0.00,meteohub,2013-04-17 17:28:00,
2013-04-17 10:33:00,74.8,74.8,30.11,NE,45,5.0,11.0,0,0.00,,,0.00,meteohub,2013-04-17 17:33:00,
2013-04-17 10:38:00,76.3,76.3,30.11,ESE,113,8.0,11.0,0,0.00,,,0.00,meteohub,2013-04-17 17:38:00,
2013-04-17 10:43:00,75.9,75.9,30.11,North,0,4.0,9.0,0,0.00,,,0.00,meteohub,2013-04-17 17:43:00,
2013-04-17 10:48:00,77.2,77.2,30.11,North,0,4.0,9.0,0,0.00,,,0.00,meteohub,2013-04-17 17:48:00,
2013-04-17 10:53:00,76.6,76.6,30.11,East,90,8.0,8.0,0,0.00,,,0.00,meteohub,2013-04-17 17:53:00,
2013-04-17 10:58:00,76.8,76.8,30.11,NNE,23,6.0,10.0,0,0.00,,,0.00,meteohub,2013-04-17 17:58:00,
2013-04-17 11:03:00,79.0,79.0,30.10,NW,315,4.0,10.0,0,0.00,,,0.00,meteohub,2013-04-17 18:03:00,
2013-04-17 11:08:00,78.3,78.3,30.10,ESE,113,8.0,10.0,0,0.00,,,0.00,meteohub,2013-04-17 18:08:00,
2013-04-17 11:13:00,77.9,77.9,30.10,North,0,3.0,11.0,0,0.00,,,0.00,meteohub,2013-04-17 18:13:00,
2013-04-17 11:18:00,78.4,78.4,30.10,East,90,4.0,11.0,0,0.00,,,0.00,meteohub,2013-04-17 18:18:00,
2013-04-17 11:23:00,78.8,78.8,30.10,ESE,113,9.0,11.0,0,0.00,,,0.00,meteohub,2013-04-17 18:23:00,
2013-04-17 11:28:00,77.0,77.0,30.10,East,90,7.0,9.0,0,0.00,,,0.00,meteohub,2013-04-17 18:28:00,
2013-04-17 11:33:00,77.4,77.4,30.10,SE,135,6.0,12.0,0,0.00,,,0.00,meteohub,2013-04-17 18:33:00,
2013-04-17 11:38:00,77.2,77.2,30.10,ESE,113,7.0,12.0,0,0.00,,,0.00,meteohub,2013-04-17 18:38:00,
2013-04-17 11:43:00,78.1,78.1,30.09,East,90,8.0,12.0,0,0.00,,,0.00,meteohub,2013-04-17 18:43:00,
2013-04-17 11:48:00,76.8,76.8,30.09,NE,45,7.0,11.0,0,0.00,,,0.00,meteohub,2013-04-17 18:48:00,
2013-04-17 11:53:00,77.4,77.4,30.09,East,90,7.0,15.0,0,0.00,,,0.00,meteohub,2013-04-17 18:53:00,
2013-04-17 11:58:00,77.9,77.9,30.09,SE,135,4.0,15.0,0,0.00,,,0.00,meteohub,2013-04-17 18:58:00,
2013-04-17 12:03:00,76.8,76.8,30.09,SE,135,7.0,15.0,0,0.00,,,0.00,meteohub,2013-04-17 19:03:00,
2013-04-17 12:08:00,76.6,76.6,30.08,NE,45,4.0,10.0,0,0.00,,,0.00,meteohub,2013-04-17 19:08:00,
2013-04-17 12:13:00,77.5,77.5,30.08,South,180,8.0,10.0,0,0.00,,,0.00,meteohub,2013-04-17 19:13:00,
2013-04-17 12:18:00,77.0,77.0,30.09,ESE,113,8.0,10.0,0,0.00,,,0.00,meteohub,2013-04-17 19:18:00,
2013-04-17 12:23:00,76.5,76.5,30.08,East,90,5.0,8.0,0,0.00,,,0.00,meteohub,2013-04-17 19:23:00,
2013-04-17 12:29:00,75.9,75.9,30.08,SE,135,4.0,9.0,0,0.00,,,0.00,meteohub,2013-04-17 19:29:00,
2013-04-17 12:34:00,76.3,76.3,30.08,NW,315,4.0,11.0,0,0.00,,,0.00,meteohub,2013-04-17 19:34:00,
2013-04-17 12:39:00,76.6,76.6,30.08,NE,45,4.0,11.0,0,0.00,,,0.00,meteohub,2013-04-17 19:39:00,
2013-04-17 12:44:00,77.4,77.4,30.08,ESE,113,7.0,11.0,0,0.00,,,0.00,meteohub,2013-04-17 19:44:00,
2013-04-17 12:49:00,77.4,77.4,30.08,East,90,7.0,7.0,0,0.00,,,0.00,meteohub,2013-04-17 19:49:00,
2013-04-17 12:54:00,76.8,76.8,30.08,NE,45,2.0,8.0,0,0.00,,,0.00,meteohub,2013-04-17 19:54:00,
2013-04-17 12:59:00,77.5,77.5,30.07,SE,135,4.0,8.0,0,0.00,,,0.00,meteohub,2013-04-17 19:59:00,
2013-04-17 13:04:00,78.1,78.1,30.08,East,90,9.0,9.0,0,0.00,,,0.00,meteohub,2013-04-17 20:04:00,
2013-04-17 13:09:00,78.1,78.1,30.07,SW,225,4.0,9.0,0,0.00,,,0.00,meteohub,2013-04-17 20:09:00,
2013-04-17 13:14:00,78.6,78.6,30.07,South,180,4.0,10.0,0,0.00,,,0.00,meteohub,2013-04-17 20:14:00,
2013-04-17 13:19:00,77.4,20.8,30.07,WNW,293,15.0,15.0,12,0.00,,,0.00,meteohub,2013-04-17 20:19:00,
2013-04-17 13:24:00,76.3,25.2,30.07,NW,315,13.0,18.0,15,0.00,,,0.00,meteohub,2013-04-17 20:24:00,
2013-04-17 13:29:00,74.8,22.5,30.07,WNW,293,13.0,18.0,14,0.00,,,0.00,meteohub,2013-04-17 20:29:00,
2013-04-17 13:34:00,73.4,25.9,30.07,NW,315,16.0,18.0,17,0.00,,,0.00,meteohub,2013-04-17 20:34:00,
2013-04-17 13:39:00,73.4,24.4,30.07,NNW,338,15.0,16.0,16,0.00,,,0.00,meteohub,2013-04-17 20:39:00,
2013-04-17 13:44:00,73.2,25.7,30.07,West,270,11.0,16.0,17,0.00,,,0.00,meteohub,2013-04-17 20:44:00,
2013-04-17 13:49:00,72.9,25.5,30.07,NW,315,13.0,21.0,17,0.00,,,0.00,meteohub,2013-04-17 20:49:00,
2013-04-17 13:54:00,72.1,27.7,30.07,NW,315,17.0,21.0,19,0.00,,,0.00,meteohub,2013-04-17 20:54:00,
2013-04-17 13:59:00,71.8,29.7,30.07,NW,315,15.0,20.0,21,0.00,,,0.00,meteohub,2013-04-17 20:59:00,
2013-04-17 14:04:00,72.3,28.9,30.07,NW,315,21.0,21.0,20,0.00,,,0.00,meteohub,2013-04-17 21:04:00,
2013-04-17 14:09:00,72.0,26.1,30.07,NW,315,17.0,19.0,18,0.00,,,0.00,meteohub,2013-04-17 21:09:00,
2013-04-17 14:14:00,72.1,25.0,30.07,NW,315,17.0,21.0,17,0.00,,,0.00,meteohub,2013-04-17 21:14:00,
2013-04-17 14:19:00,72.9,25.5,30.07,NW,315,19.0,21.0,17,0.00,,,0.00,meteohub,2013-04-17 21:19:00,
2013-04-17 14:24:00,72.0,24.8,30.07,WNW,293,17.0,19.0,17,0.00,,,0.00,meteohub,2013-04-17 21:24:00,
2013-04-17 14:29:00,71.4,21.4,30.07,NW,315,16.0,20.0,15,0.00,,,0.00,meteohub,2013-04-17 21:29:00,
2013-04-17 14:34:00,71.4,21.4,30.07,NW,315,15.0,22.0,15,0.00,,,0.00,meteohub,2013-04-17 21:34:00,
2013-04-17 14:39:00,71.6,23.0,30.08,NW,315,20.0,23.0,16,0.00,,,0.00,meteohub,2013-04-17 21:39:00,
2013-04-17 14:44:00,71.1,22.6,30.08,NW,315,17.0,23.0,16,0.00,,,0.00,meteohub,2013-04-17 21:44:00,
2013-04-17 14:49:00,71.2,24.3,30.08,West,270,21.0,23.0,17,0.00,,,0.00,meteohub,2013-04-17 21:49:00,
2013-04-17 14:54:00,70.7,19.2,30.08,West,270,17.0,22.0,14,0.00,,,0.00,meteohub,2013-04-17 21:54:00,
2013-04-17 14:59:00,70.3,20.5,30.08,West,270,16.0,22.0,15,0.00,,,0.00,meteohub,2013-04-17 21:59:00,
2013-04-17 15:04:00,70.7,22.3,30.07,NW,315,17.0,22.0,16,0.00,,,0.00,meteohub,2013-04-17 22:04:00,
2013-04-17 15:09:00,70.3,20.5,30.07,WNW,293,17.0,22.0,15,0.00,,,0.00,meteohub,2013-04-17 22:09:00,
2013-04-17 15:14:00,70.5,19.0,30.07,West,270,13.0,21.0,14,0.00,,,0.00,meteohub,2013-04-17 22:14:00,
2013-04-17 15:19:00,71.4,14.2,30.08,NW,315,15.0,25.0,11,0.00,,,0.00,meteohub,2013-04-17 22:19:00,
2013-04-17 15:24:00,71.4,71.4,30.07,West,270,11.0,25.0,0,0.00,,,0.00,meteohub,2013-04-17 22:24:00,
2013-04-17 15:29:00,71.4,12.0,30.07,West,270,23.0,25.0,10,0.00,,,0.00,meteohub,2013-04-17 22:29:00,
2013-04-17 15:34:00,70.9,11.7,30.07,NW,315,17.0,21.0,10,0.00,,,0.00,meteohub,2013-04-17 22:34:00,
2013-04-17 15:39:00,71.2,11.8,30.06,NW,315,17.0,23.0,10,0.00,,,0.00,meteohub,2013-04-17 22:39:00,
2013-04-17 15:44:00,70.9,70.9,30.06,NW,315,21.0,23.0,0,0.00,,,0.00,meteohub,2013-04-17 22:44:00,
2013-04-17 15:49:00,71.6,16.3,30.07,WNW,293,8.0,22.0,12,0.00,,,0.00,meteohub,2013-04-17 22:49:00,
2013-04-17 15:54:00,71.6,16.3,30.06,WNW,293,17.0,22.0,12,0.00,,,0.00,meteohub,2013-04-17 22:54:00,
2013-04-17 15:59:00,71.1,15.8,30.06,WNW,293,13.0,22.0,12,0.00,,,0.00,meteohub,2013-04-17 22:59:00,
2013-04-17 16:04:00,72.0,18.5,30.06,WNW,293,11.0,17.0,13,0.00,,,0.00,meteohub,2013-04-17 23:04:00,
2013-04-17 16:09:00,71.8,19.9,30.06,West,270,17.0,17.0,14,0.00,,,0.00,meteohub,2013-04-17 23:09:00,
2013-04-17 16:14:00,71.1,15.8,30.06,NW,315,15.0,17.0,12,0.00,,,0.00,meteohub,2013-04-17 23:14:00,
2013-04-17 16:19:00,71.6,16.3,30.06,WNW,293,17.0,17.0,12,0.00,,,0.00,meteohub,2013-04-17 23:19:00,
2013-04-17 16:24:00,71.6,14.4,30.06,NW,315,10.0,17.0,11,0.00,,,0.00,meteohub,2013-04-17 23:24:00,
2013-04-17 16:29:00,71.6,12.2,30.06,NW,315,15.0,17.0,10,0.00,,,0.00,meteohub,2013-04-17 23:29:00,
2013-04-17 16:34:00,71.6,12.2,30.05,NW,315,15.0,17.0,10,0.00,,,0.00,meteohub,2013-04-17 23:34:00,
2013-04-17 16:39:00,71.8,18.3,30.06,North,0,7.0,17.0,13,0.00,,,0.00,meteohub,2013-04-17 23:39:00,
2013-04-17 16:44:00,72.1,72.1,30.06,NW,315,15.0,17.0,0,0.00,,,0.00,meteohub,2013-04-17 23:44:00,
2013-04-17 16:49:00,71.8,12.2,30.06,NW,315,14.0,17.0,10,0.00,,,0.00,meteohub,2013-04-17 23:49:00,
2013-04-17 16:54:00,71.6,14.4,30.06,NW,315,13.0,17.0,11,0.00,,,0.00,meteohub,2013-04-17 23:54:00,
2013-04-17 16:59:00,72.0,14.5,30.06,WNW,293,8.0,15.0,11,0.00,,,0.00,meteohub,2013-04-17 23:59:00,
2013-04-17 17:04:00,72.0,14.5,30.06,NW,315,11.0,15.0,11,0.00,,,0.00,meteohub,2013-04-18 00:04:00,
2013-04-17 17:09:00,72.3,12.7,30.06,NNE,23,6.0,15.0,10,0.00,,,0.00,meteohub,2013-04-18 00:09:00,
2013-04-17 17:14:00,72.7,72.7,30.06,West,270,11.0,13.0,0,0.00,,,0.00,meteohub,2013-04-18 00:14:00,
2013-04-17 17:19:00,72.9,72.9,30.06,North,0,7.0,13.0,0,0.00,,,0.00,meteohub,2013-04-18 00:19:00,
2013-04-17 17:24:00,72.9,13.1,30.06,NW,315,4.0,13.0,10,0.00,,,0.00,meteohub,2013-04-18 00:24:00,
2013-04-17 17:29:00,72.9,15.3,30.06,NE,45,7.0,11.0,11,0.00,,,0.00,meteohub,2013-04-18 00:29:00,
2013-04-17 17:34:00,72.7,12.9,30.06,NW,315,6.0,13.0,10,0.00,,,0.00,meteohub,2013-04-18 00:34:00,
2013-04-17 17:39:00,72.3,14.9,30.06,NW,315,8.0,13.0,11,0.00,,,0.00,meteohub,2013-04-18 00:39:00,
2013-04-17 17:44:00,72.1,14.7,30.07,North,0,6.0,13.0,11,0.00,,,0.00,meteohub,2013-04-18 00:44:00,
2013-04-17 17:49:00,71.8,12.2,30.07,NW,315,7.0,11.0,10,0.00,,,0.00,meteohub,2013-04-18 00:49:00,
2013-04-17 17:55:00,72.0,14.5,30.06,North,0,8.0,11.0,11,0.00,,,0.00,meteohub,2013-04-18 00:55:00,
2013-04-17 17:59:00,72.0,14.5,30.06,North,0,6.0,11.0,11,0.00,,,0.00,meteohub,2013-04-18 00:59:00,
2013-04-17 18:05:00,71.6,18.1,30.06,North,0,9.0,10.0,13,0.00,,,0.00,meteohub,2013-04-18 01:05:00,
2013-04-17 18:10:00,71.1,17.8,30.06,North,0,4.0,10.0,13,0.00,,,0.00,meteohub,2013-04-18 01:10:00,
2013-04-17 18:15:00,71.1,15.8,30.06,NNE,23,8.0,11.0,12,0.00,,,0.00,meteohub,2013-04-18 01:15:00,
2013-04-17 18:20:00,70.9,11.7,30.07,North,0,8.0,11.0,10,0.00,,,0.00,meteohub,2013-04-18 01:20:00,
2013-04-17 18:25:00,70.7,13.6,30.06,NNW,338,4.0,11.0,11,0.00,,,0.00,meteohub,2013-04-18 01:25:00,
2013-04-17 18:30:00,70.3,13.3,30.07,North,0,5.0,10.0,11,0.00,,,0.00,meteohub,2013-04-18 01:30:00,
2013-04-17 18:35:00,69.8,12.9,30.07,North,0,9.0,10.0,11,0.00,,,0.00,meteohub,2013-04-18 01:35:00,
2013-04-17 18:40:00,69.3,14.5,30.07,NW,315,5.0,15.0,12,0.00,,,0.00,meteohub,2013-04-18 01:40:00,
2013-04-17 18:45:00,68.9,16.0,30.07,North,0,8.0,15.0,13,0.00,,,0.00,meteohub,2013-04-18 01:45:00,
2013-04-17 18:50:00,68.2,17.2,30.07,NW,315,10.0,15.0,14,0.00,,,0.00,meteohub,2013-04-18 01:50:00,
2013-04-17 18:55:00,67.6,16.7,30.07,North,0,10.0,11.0,14,0.00,,,0.00,meteohub,2013-04-18 01:55:00,
2013-04-17 19:00:00,67.3,19.6,30.07,North,0,4.0,13.0,16,0.00,,,0.00,meteohub,2013-04-18 02:00:00,
2013-04-17 19:05:00,66.6,17.4,30.07,NW,315,7.0,13.0,15,0.00,,,0.00,meteohub,2013-04-18 02:05:00,
2013-04-17 19:10:00,66.0,23.7,30.07,NW,315,5.0,13.0,20,0.00,,,0.00,meteohub,2013-04-18 02:10:00,
2013-04-17 19:15:00,65.5,24.4,30.07,West,270,6.0,11.0,21,0.00,,,0.00,meteohub,2013-04-18 02:15:00,
2013-04-17 19:20:00,65.1,25.3,30.07,North,0,9.0,11.0,22,0.00,,,0.00,meteohub,2013-04-18 02:20:00,
2013-04-17 19:25:00,64.8,26.1,30.07,NNE,23,6.0,11.0,23,0.00,,,0.00,meteohub,2013-04-18 02:25:00,
2013-04-17 19:30:00,64.4,26.8,30.07,NW,315,4.0,11.0,24,0.00,,,0.00,meteohub,2013-04-18 02:30:00,
2013-04-17 19:35:00,64.0,30.2,30.07,North,0,5.0,10.0,28,0.00,,,0.00,meteohub,2013-04-18 02:35:00,
2013-04-17 19:40:00,63.7,31.6,30.07,NE,45,4.0,9.0,30,0.00,,,0.00,meteohub,2013-04-18 02:40:00,
2013-04-17 19:45:00,63.3,32.2,30.07,NW,315,4.0,8.0,31,0.00,,,0.00,meteohub,2013-04-18 02:45:00,
2013-04-17 19:50:00,63.1,32.7,30.07,NW,315,3.0,8.0,32,0.00,,,0.00,meteohub,2013-04-18 02:50:00,
2013-04-17 19:55:00,63.0,34.2,30.08,NW,315,7.0,8.0,34,0.00,,,0.00,meteohub,2013-04-18 02:55:00,
2013-04-17 20:00:00,62.8,36.1,30.08,WNW,293,4.0,8.0,37,0.00,,,0.00,meteohub,2013-04-18 03:00:00,
2013-04-17 20:05:00,62.4,36.5,30.09,West,270,1.0,7.0,38,0.00,,,0.00,meteohub,2013-04-18 03:05:00,
2013-04-17 20:10:00,62.1,40.5,30.08,West,270,2.0,7.0,45,0.00,,,0.00,meteohub,2013-04-18 03:10:00,
2013-04-17 20:15:00,61.5,41.2,30.09,West,270,2.0,4.0,47,0.00,,,0.00,meteohub,2013-04-18 03:15:00,
2013-04-17 20:20:00,61.2,40.8,30.09,West,270,2.0,4.0,47,0.00,,,0.00,meteohub,2013-04-18 03:20:00,
2013-04-17 20:25:00,60.8,39.9,30.08,West,270,1.0,2.0,46,0.00,,,0.00,meteohub,2013-04-18 03:25:00,
2013-04-17 20:30:00,60.6,40.8,30.09,NW,315,3.0,3.0,48,0.00,,,0.00,meteohub,2013-04-18 03:30:00,
2013-04-17 20:35:00,60.8,41.0,30.09,NW,315,2.0,3.0,48,0.00,,,0.00,meteohub,2013-04-18 03:35:00,
2013-04-17 20:40:00,60.8,41.0,30.10,NW,315,2.0,3.0,48,0.00,,,0.00,meteohub,2013-04-18 03:40:00,
2013-04-17 20:45:00,60.6,41.4,30.10,NW,315,1.0,3.0,49,0.00,,,0.00,meteohub,2013-04-18 03:45:00,
2013-04-17 20:50:00,60.1,41.4,30.10,NW,315,2.0,2.0,50,0.00,,,0.00,meteohub,2013-04-18 03:50:00,
2013-04-17 20:55:00,59.4,41.2,30.10,NW,315,0.0,2.0,51,0.00,,,0.00,meteohub,2013-04-18 03:55:00,
2013-04-17 21:00:00,59.2,42.6,30.10,West,270,1.0,2.0,54,0.00,,,0.00,meteohub,2013-04-18 04:00:00,
2013-04-17 21:01:00,59.2,42.6,30.10,West,270,1.0,2.0,54,0.00,,,0.00,meteohub,2013-04-18 04:01:00,
2013-04-17 21:02:00,59.0,42.4,30.10,West,270,2.0,2.0,54,0.00,,,0.00,meteohub,2013-04-18 04:02:00,
2013-04-17 21:07:00,58.6,42.1,30.10,West,270,0.0,2.0,54,0.00,,,0.00,meteohub,2013-04-18 04:07:00,
2013-04-17 21:12:00,58.5,42.4,30.10,West,270,2.0,2.0,55,0.00,,,0.00,meteohub,2013-04-18 04:12:00,
2013-04-17 21:17:00,58.3,42.6,30.11,West,270,2.0,2.0,56,0.00,,,0.00,meteohub,2013-04-18 04:17:00,
2013-04-17 21:22:00,58.1,43.9,30.11,West,270,3.0,3.0,59,0.00,,,0.00,meteohub,2013-04-18 04:22:00,
2013-04-17 21:27:00,58.1,43.3,30.11,West,270,2.0,3.0,58,0.00,,,0.00,meteohub,2013-04-18 04:27:00,
2013-04-17 21:32:00,57.7,43.0,30.11,West,270,2.0,3.0,58,0.00,,,0.00,meteohub,2013-04-18 04:32:00,
2013-04-17 21:37:00,57.7,43.0,30.11,West,270,2.0,3.0,58,0.00,,,0.00,meteohub,2013-04-18 04:37:00,
2013-04-17 21:42:00,57.6,43.0,30.11,West,270,2.0,3.0,58,0.00,,,0.00,meteohub,2013-04-18 04:42:00,
2013-04-17 21:47:00,57.2,42.1,30.11,West,270,0.0,2.0,57,0.00,,,0.00,meteohub,2013-04-18 04:47:00,
2013-04-17 21:52:00,57.0,41.9,30.12,West,270,2.0,2.0,57,0.00,,,0.00,meteohub,2013-04-18 04:52:00,
2013-04-17 21:57:00,57.0,41.5,30.12,South,180,2.0,2.0,56,0.00,,,0.00,meteohub,2013-04-18 04:57:00,
2013-04-17 22:02:00,57.2,42.1,30.12,South,180,2.0,3.0,57,0.00,,,0.00,meteohub,2013-04-18 05:02:00,
2013-04-17 22:07:00,57.0,41.9,30.12,East,90,1.0,3.0,57,0.00,,,0.00,meteohub,2013-04-18 05:07:00,
2013-04-17 22:12:00,56.7,42.4,30.12,East,90,2.0,3.0,59,0.00,,,0.00,meteohub,2013-04-18 05:12:00,
2013-04-17 22:17:00,56.5,42.8,30.12,East,90,1.0,4.0,60,0.00,,,0.00,meteohub,2013-04-18 05:17:00,
2013-04-17 22:22:00,56.3,43.0,30.12,East,90,2.0,4.0,61,0.00,,,0.00,meteohub,2013-04-18 05:22:00,
2013-04-17 22:27:00,55.9,43.2,30.13,East,90,2.0,4.0,62,0.00,,,0.00,meteohub,2013-04-18 05:27:00,
2013-04-17 22:32:00,55.9,43.5,30.13,East,90,2.0,3.0,63,0.00,,,0.00,meteohub,2013-04-18 05:32:00,
2013-04-17 22:37:00,55.6,43.2,30.12,East,90,0.0,2.0,63,0.00,,,0.00,meteohub,2013-04-18 05:37:00,
2013-04-17 22:42:00,55.2,42.8,30.13,East,90,0.0,2.0,63,0.00,,,0.00,meteohub,2013-04-18 05:42:00,
2013-04-17 22:47:00,55.2,43.7,30.13,East,90,1.0,2.0,65,0.00,,,0.00,meteohub,2013-04-18 05:47:00,
2013-04-17 22:52:00,55.4,43.9,30.13,East,90,2.0,2.0,65,0.00,,,0.00,meteohub,2013-04-18 05:52:00,
2013-04-17 22:57:00,55.0,43.9,30.13,East,90,2.0,2.0,66,0.00,,,0.00,meteohub,2013-04-18 05:57:00,
2013-04-17 23:02:00,54.9,43.7,30.13,East,90,0.0,2.0,66,0.00,,,0.00,meteohub,2013-04-18 06:02:00,
2013-04-17 23:07:00,54.7,43.5,30.13,East,90,0.0,2.0,66,0.00,,,0.00,meteohub,2013-04-18 06:07:00,
2013-04-17 23:12:00,54.5,43.7,30.13,East,90,0.0,2.0,67,0.00,,,0.00,meteohub,2013-04-18 06:12:00,
2013-04-17 23:17:00,54.1,43.9,30.13,East,90,2.0,2.0,68,0.00,,,0.00,meteohub,2013-04-18 06:17:00,
2013-04-17 23:22:00,54.0,44.1,30.13,East,90,0.0,2.0,69,0.00,,,0.00,meteohub,2013-04-18 06:22:00,
2013-04-17 23:28:00,53.8,43.9,30.13,East,90,0.0,2.0,69,0.00,,,0.00,meteohub,2013-04-18 06:28:00,
2013-04-17 23:33:00,53.4,43.9,30.13,East,90,0.0,2.0,70,0.00,,,0.00,meteohub,2013-04-18 06:33:00,
2013-04-17 23:38:00,53.6,44.1,30.14,East,90,0.0,2.0,70,0.00,,,0.00,meteohub,2013-04-18 06:38:00,
2013-04-17 23:43:00,54.0,44.8,30.14,East,90,0.0,2.0,71,0.00,,,0.00,meteohub,2013-04-18 06:43:00,
2013-04-17 23:48:00,53.4,43.9,30.14,East,90,0.0,2.0,70,0.00,,,0.00,meteohub,2013-04-18 06:48:00,
2013-04-17 23:53:00,52.9,43.3,30.14,East,90,0.0,2.0,70,0.00,,,0.00,meteohub,2013-04-18 06:53:00,
2013-04-17 23:58:00,52.5,43.7,30.14,East,90,0.0,1.0,72,0.00,,,0.00,meteohub,2013-04-18 06:58:00,